Weather History for KGUS - October, 2011

Change the Weather History Date:

Monday, October 24, 2011

  Actual Average Record
Temperature  
Mean Temperature 52 °F -  
Max Temperature 62 °F 58 °F 77 °F (2012)
Min Temperature 44 °F 41 °F 30 °F (2006)
Degree Days  
Heating Degree Days 12    
Growing Degree Days 2 (Base 50)    
Moisture  
Dew Point 49 °F    
Average Humidity 87    
Maximum Humidity 100    
Minimum Humidity 24    
Precipitation  
Precipitation 0.21 in - - ()
Sea Level Pressure  
Sea Level Pressure 30.00 in    
Wind  
Wind Speed 11 mph (West)    
Max Wind Speed 23 mph    
Max Gust Speed 32 mph    
Visibility 8 miles    
Events Rain , Thunderstorm    
Averages and records for this station are not official NWS values.
T = Trace of Precipitation, MM = Missing Value Source: NWS Daily Summary

Daily Weather History Graph

Daily Weather History Graph

Search for Another Location

Airport or City:

Trip Planner

Search our weather history database for the weather conditions in past years. The results will help you decide how hot, cold, wet, or windy it might be!

Date:

Astronomy

Oct. 24, 2011 Rise Set
Actual Time 8:05 AM EDT 6:51 PM EDT
Civil Twilight 7:37 AM EDT 7:19 PM EDT
Nautical Twilight 7:05 AM EDT 7:51 PM EDT
Astronomical Twilight 6:33 AM EDT 8:23 PM EDT
Moon 5:22 AM EDT (10/24) 5:16 PM EDT (10/24)
Length of Visible Light 11h 42m
Length of Day
10h 46m
Waning Crescent, 7% of the Moon is Illuminated
Oct 24
Waning Crescent
Oct 26
New
Nov 2
First Quarter
Nov 10
Full
Nov 18
Last Quarter

Hourly Weather History & Observations

Time (EDT) Temp. Windchill Dew Point Humidity Pressure Visibility Wind Dir Wind Speed Gust Speed Precip Events Conditions
12:55 AM 54.5 °F - 54.3 °F 99% 29.93 in 10.0 mi SSW 16.1 mph - N/A   Clear
1:55 AM 54.7 °F - 54.5 °F 99% 29.93 in 10.0 mi SSW 13.8 mph - N/A   Clear
2:55 AM 54.3 °F - 54.1 °F 99% 29.91 in 10.0 mi SW 16.1 mph - N/A   Scattered Clouds
3:52 AM 55.4 °F - 53.6 °F 94% 29.94 in 10.0 mi NW 23.0 mph 32.2 mph N/A   Mostly Cloudy
3:55 AM 55.4 °F - 54.5 °F 97% 29.94 in 10.0 mi WNW 20.7 mph 32.2 mph N/A   Mostly Cloudy
3:56 AM 55.4 °F - 55.4 °F 100% 29.94 in 10.0 mi WNW 20.7 mph 32.2 mph N/A   Mostly Cloudy
4:12 AM 55.4 °F - 55.4 °F 100% 29.94 in 10.0 mi WNW 11.5 mph - N/A Rain Light Rain
4:20 AM 55.4 °F - 55.4 °F 100% 29.94 in 10.0 mi West 8.1 mph - N/A   Light Drizzle
4:32 AM 55.4 °F - 55.4 °F 100% 29.95 in 5.0 mi West 8.1 mph - N/A Rain , Thunderstorm Light Rain
4:33 AM 53.6 °F - 53.6 °F 100% 29.95 in 4.0 mi West 6.9 mph - N/A Rain , Thunderstorm Light Rain
4:34 AM 53.6 °F - 53.6 °F 100% 29.95 in 3.0 mi West 6.9 mph - N/A Rain , Thunderstorm Light Rain
4:36 AM 53.6 °F - 53.6 °F 100% 29.95 in 2.0 mi West 8.1 mph - N/A Rain , Thunderstorm Heavy Thunderstorms and Rain
4:41 AM 53.6 °F - 53.6 °F 100% 29.96 in 1.8 mi West 6.9 mph - N/A Rain , Thunderstorm Light Thunderstorms and Rain
4:44 AM 53.6 °F - 53.6 °F 100% 29.95 in 2.0 mi West 5.8 mph - N/A Rain , Thunderstorm Light Thunderstorms and Rain
4:45 AM 53.6 °F - 53.6 °F 100% 29.95 in 2.0 mi West 5.8 mph - N/A Rain , Thunderstorm Light Thunderstorms and Rain
4:47 AM 53.6 °F - 53.6 °F 100% 29.95 in 3.0 mi West 6.9 mph - N/A Rain , Thunderstorm Light Thunderstorms and Rain
4:52 AM 53.6 °F - 53.6 °F 100% 29.94 in 5.0 mi West 3.5 mph - N/A Rain , Thunderstorm Light Thunderstorms and Rain
4:55 AM 53.1 °F - 53.1 °F 100% 29.94 in 5.0 mi West 4.6 mph - 0.17 in Rain , Thunderstorm Light Thunderstorms and Rain
5:00 AM 53.6 °F - 53.6 °F 100% 29.94 in 5.0 mi West 4.6 mph - N/A Rain Light Rain
5:03 AM 53.6 °F - 53.6 °F 100% 29.93 in 6.0 mi West 4.6 mph - N/A Rain Light Rain
5:15 AM 53.6 °F - 53.6 °F 100% 29.93 in 7.0 mi SW 6.9 mph - N/A Rain Light Rain
5:17 AM 53.6 °F - 53.6 °F 100% 29.93 in 8.0 mi SW 5.8 mph - N/A Rain Light Rain
5:44 AM 51.8 °F - 51.8 °F 100% 29.92 in 10.0 mi SSW 9.2 mph - N/A   Mostly Cloudy
5:55 AM 52.2 °F - 52.2 °F 100% 29.91 in 10.0 mi South 6.9 mph - 0.03 in   Mostly Cloudy
6:30 AM 51.8 °F - 51.8 °F 100% 29.91 in 10.0 mi South 5.8 mph - N/A   Light Drizzle
6:41 AM 51.8 °F - 51.8 °F 100% 29.92 in 10.0 mi South 5.8 mph - N/A   Overcast
6:55 AM 51.4 °F - 51.4 °F 100% 29.93 in 10.0 mi SW 6.9 mph - 0.00 in   Mostly Cloudy
7:55 AM 52.0 °F - 52.0 °F 100% 29.95 in 10.0 mi SW 8.1 mph - N/A   Overcast
8:55 AM 52.3 °F - 52.3 °F 100% 29.98 in 10.0 mi West 9.2 mph - 0.01 in   Overcast
9:55 AM 53.6 °F - 53.4 °F 99% 30.00 in 10.0 mi NW 8.1 mph - N/A   Mostly Cloudy
10:30 AM 53.6 °F - 53.6 °F 100% 30.01 in 10.0 mi NNW 10.4 mph - N/A   Mostly Cloudy
10:55 AM 53.8 °F - 53.8 °F 100% 30.04 in 10.0 mi NNW 8.1 mph - N/A   Overcast
11:15 AM 55.4 °F - 55.4 °F 100% 30.04 in 10.0 mi North 12.7 mph - N/A   Mostly Cloudy
11:35 AM 55.4 °F - 55.4 °F 100% 30.06 in 10.0 mi NNW 9.2 mph - N/A   Scattered Clouds
11:55 AM 56.1 °F - 54.7 °F 95% 30.06 in 10.0 mi NNW 11.5 mph - N/A   Partly Cloudy
12:55 PM 58.1 °F - 48.6 °F 71% 30.09 in 10.0 mi NNW 10.4 mph 17.3 mph N/A   Scattered Clouds
1:55 PM 59.7 °F - 37.0 °F 43% 30.09 in 10.0 mi NNW 11.5 mph - N/A   Clear
2:55 PM 61.2 °F - 32.9 °F 35% 30.09 in 10.0 mi NW 8.1 mph - N/A   Clear
3:55 PM 61.9 °F - 25.5 °F 25% 30.09 in 10.0 mi NW 13.8 mph - N/A   Clear
4:55 PM 61.7 °F - 24.4 °F 24% 30.10 in 10.0 mi NW 5.8 mph - N/A   Clear
5:55 PM 60.3 °F - 27.5 °F 29% 30.12 in 10.0 mi WNW 9.2 mph - N/A   Clear
6:55 PM 55.0 °F - 34.0 °F 45% 30.13 in 10.0 mi WSW 5.8 mph - N/A   Clear
7:55 PM 48.9 °F - 36.5 °F 62% 30.15 in 10.0 mi WSW 5.8 mph - N/A   Clear
8:55 PM 46.8 °F - 38.5 °F 73% 30.16 in 10.0 mi SSW 6.9 mph - N/A   Clear
9:55 PM 45.5 °F 42.5 °F 37.4 °F 73% 30.16 in 10.0 mi SSW 5.8 mph - N/A   Clear
10:55 PM 44.8 °F 41.0 °F 36.7 °F 73% 30.17 in 10.0 mi SSW 6.9 mph - N/A   Clear
11:55 PM 44.4 °F 40.0 °F 37.2 °F 76% 30.17 in 10.0 mi SSW 8.1 mph - N/A   Clear